FENGYUN 1C DEB, 31074

Orbit data source: Space-Track

FENGYUN 1C DEB, 31074 is space debris in SSO originally from a launch on Mon, 10 May 1999 UTC launched from the Taiyaun Space Center, China (TSC). Fengyun 1C debris stems from the Chinese weather satellite Fengyun-1C, which was intentionally destroyed by a Chinese anti-satellite missile in 2007. This event dramatically increased the amount of space debris, with thousands of trackable fragments posing hazards to satellites and human spaceflight. The Fengyun 1C debris cloud has become a focal point in discussions about space sustainability and the need for international regulations to prevent the creation of new debris.

Loading next visibility...
Identifier
31074, 1999-025BFU
Orbit
SSO
Country
Flag of CNCN / PRC
Related business
Manufacturer
Unknown
Mission
Spacecraft
Bus & Motor
Unknown
Mass
Unknown
Launch date (UTC)
Icon of a cake. It is the launch day of the satellite!1999-05-10 (27 years ago)
Launch vehicle
Unknown
Launch site
Taiyaun Space Center, China (TSC)
Object type
Payload
Rocket body
Debris
Shape & HBR
Unknown shape, 0.1 m
Radar Cross Section
Small (<0.1 m²)

Expand to show TLE details & history
Last TLE update: 20 hours ago

TLE from 20 hours ago
0 FENGYUN 1C DEB
1 31074U 99025BFU 26129.71214461  .00002412  00000-0  12171-2 0  9999
2 31074  98.9591  50.2851 0083394 202.8346 156.9110 14.15435448976724
Epoch: 2026-05-09T17:05Z
TLE epoch observation values (Epoch: 2026-05-09T17:05:29.294Z)
Latitude
-0.00001°
Longitude
-73.6126°
Altitude
899.198 km
Speed
7.374 km/s
True Right ascension
03h 21m 08s
True Declination
0° 00' 00"
Sunlit
Object was in daylight at epoch
Visualization orbit readout
Latitude
Unknown
Longitude
Unknown
Altitude
Unknown
Speed
Unknown
Apparent Right ascension
Unknown
Apparent Declination
Unknown
Sunlit
N/A
Visualization observer readout
Local Sidereal Time
21:26:30
Azimuth
Unknown
Elevation
Unknown
Doppler factor
Unknown
Orbital elements
Apogee altitude
898.186 km
Perigee altitude
777.829 km
Semi-major axis
7,216.145 km
Eccentricity
0.00834
Inclination
98.9591°
RAAN
50.2851°
Arg. of periapsis
202.8346°
True anomaly
157.28219°
Mean anomaly
156.911°
Eccentric anomaly
157.09695°
Mean motion
3.54067 °/min
Orbital period
101.68 mins
BSTAR
0.0012171
Loading maneuver chart data...
Computing Atmospheric mass density...

Documentation

Showing up to 5 results
|